GONETS-M 24

导读

GONETS-M 24是独联体(CIS)发射的GONETS-M系列低轨通信卫星之一,于2022年10月22日发射。该卫星属于俄罗斯卫星通信系统,单星重约280公斤,运行在约1500公里、倾角82.5度的近地轨道,主要承担物联网通信功能,支持数据暂存,为偏远地区提供通信服务,是俄罗斯“球体”星座计划的配套卫星,助力构建自主天基通信网络。

基本信息
目录编号:
54151
目录名称:
GONETS-M 24
国际标识:
2022-139B
轨道中心:
EARTH
卫星名称:
GONETS-M 24
卫星全名:
--
卫星状态:
在轨 (已飞行1332 天)
发射日期:
2022-10-22 UTC
国别 :
俄罗斯(独联体) (CIS)
星等 :
--
轨道信息
数据来源 国际轨道数据 AOE轨道数据
星历时间 2026-06-15T05:38:05+0800
6小时前
查看轨道信息
2026-06-15T03:00:00+0800
8小时前
查看轨道信息
半长轴 7872.507km 7872.491km
偏心率 0.0015936 0.0015421
轨道倾角 82.499° 82.498°
近地点辐角 235.312° 231.030°
升交点赤经 348.777° 348.846°
平近点角 124.646° 357.978°
近地点 1481.824km 1482.213km
远地点 1506.916km 1506.495km
周期 115.859分钟 115.859分钟
每日圈数 12.428914 12.428952
详细信息
使用方式:
暂无
2D轨道图
3D轨道图
轨道高度分析图
轨道倾角分析图
轨道综合分析图
查看轨道综合分析图